Change the Weather History Date:

Wednesday, October 1, 2014

  Actual Average Record
Temperature  
Mean Temperature 62 °F 59 °F  
Max Temperature 69 °F 70 °F 85 °F (1952)
Min Temperature 55 °F 49 °F 26 °F (1993)
Degree Days  
Heating Degree Days 3 7  
Month to date heating degree days 3 7  
Since 1 July heating degree days 67 104  
Cooling Degree Days 0 1  
Month to date cooling degree days 0 1  
Year to date cooling degree days 963 802  
Growing Degree Days 18 (Base 50)    
Moisture  
Dew Point 54 °F    
Average Humidity 76    
Maximum Humidity 93    
Minimum Humidity 59    
Precipitation  
Precipitation 0.00 in 0.09 in 2.20 in (1986)
Month to date precipitation 0.00 0.09  
Year to date precipitation 32.80 32.77  
Sea Level Pressure  
Sea Level Pressure 29.99 in    
Wind  
Wind Speed 2 mph (SSW)    
Max Wind Speed 6 mph    
Max Gust Speed 9 mph    
Visibility 4 miles    
Events Fog , Rain , Thunderstorm    
T = Trace of Precipitation, MM = Missing Value Source: NWS Daily Summary

Daily Weather History Graph

Daily Weather History Graph

Search for Another Location

Airport or City:

Trip Planner

Search our weather history database for the weather conditions in past years. The results will help you decide how hot, cold, wet, or windy it might be!

Date:

Astronomy

Oct. 01, 2014 Rise Set
Actual Time 7:15 AM EDT 7:02 PM EDT
Civil Twilight 6:48 AM EDT 7:28 PM EDT
Nautical Twilight 6:17 AM EDT 8:00 PM EDT
Astronomical Twilight 5:46 AM EDT 8:31 PM EDT
Moon 2:14 PM EDT (10/1) No Moon Set
Length of Visible Light 12h 39m
Length of Day
11h 46m
Waxing Crescent, 48% of the Moon is Illuminated
Oct 1
Waxing Crescent
Oct 1
First Quarter
Oct 8
Full
Oct 15
Last Quarter
Oct 23
New

Hourly Weather History & Observations

Time (EDT) Temp. Dew Point Humidity Pressure Visibility Wind Dir Wind Speed Gust Speed Precip Events Conditions
12:04 AM 59.0 °F 55.9 °F 90% 29.98 in 0.5 mi Calm Calm - N/A Fog Fog
12:15 AM 57.9 °F 55.0 °F 90% 29.98 in 0.5 mi SE 4.6 mph - N/A Fog Fog
12:25 AM 59.0 °F 55.0 °F 87% 29.98 in 1.0 mi Calm Calm - N/A   Mostly Cloudy
12:30 AM 57.9 °F 55.0 °F 90% 29.98 in 3.0 mi Calm Calm - N/A   Mostly Cloudy
12:53 AM 57.9 °F 54.0 °F 87% 29.96 in 1.0 mi North 3.5 mph - N/A   Mostly Cloudy
1:00 AM 57.9 °F 55.0 °F 90% 29.98 in 0.2 mi Calm Calm - N/A Fog Fog
1:07 AM 57.9 °F 54.0 °F 87% 29.97 in 1.0 mi Calm Calm - N/A   Mostly Cloudy
1:10 AM 57.9 °F 54.0 °F 87% 29.97 in 3.0 mi Calm Calm - N/A   Mostly Cloudy
1:23 AM 57.9 °F 54.0 °F 87% 29.98 in 1.8 mi Calm Calm - N/A   Mostly Cloudy
1:32 AM 57.9 °F 54.0 °F 87% 29.98 in 3.0 mi Calm Calm - N/A   Scattered Clouds
1:53 AM 57.0 °F 54.0 °F 89% 29.96 in 0.8 mi East 3.5 mph - N/A   Mist
2:05 AM 55.9 °F 53.1 °F 90% 29.98 in 0.2 mi East 3.5 mph - N/A Fog Fog
2:53 AM 55.9 °F 53.1 °F 90% 29.96 in 0.2 mi Calm Calm - N/A Fog Fog
3:53 AM 55.9 °F 53.1 °F 90% 29.96 in 0.2 mi North 3.5 mph - N/A Fog Fog
4:53 AM 55.9 °F 53.1 °F 90% 29.97 in 0.2 mi Calm Calm - N/A Fog Fog
5:53 AM 55.9 °F 53.1 °F 90% 29.97 in 0.2 mi Calm Calm - N/A Fog Fog
6:53 AM 55.9 °F 53.1 °F 90% 29.99 in 0.2 mi Calm Calm - N/A Fog Fog
8:45 AM 55.9 °F 53.1 °F 90% 30.03 in 0.2 mi Calm Calm - N/A Fog Fog
8:53 AM 55.9 °F 54.0 °F 93% 30.03 in 0.2 mi Calm Calm - N/A Fog Fog
9:53 AM 57.0 °F 55.0 °F 93% 30.05 in 0.8 mi Calm Calm - N/A   Mist
9:58 AM 57.0 °F 54.0 °F 89% 30.06 in 2.0 mi Calm Calm - N/A   Overcast
10:06 AM 57.0 °F 54.0 °F 89% 30.06 in 9.0 mi Calm Calm - N/A   Overcast
10:21 AM 57.9 °F 54.0 °F 87% 30.06 in 10.0 mi Calm Calm - N/A   Overcast
10:45 AM 60.1 °F 55.0 °F 83% 30.06 in 10.0 mi Calm Calm - N/A   Overcast
10:53 AM 60.1 °F 55.0 °F 83% 30.05 in 10.0 mi Calm Calm - N/A   Overcast
11:53 AM 62.1 °F 55.9 °F 80% 30.05 in 9.0 mi West 3.5 mph - N/A   Overcast
12:53 PM 63.0 °F 55.9 °F 78% 30.05 in 8.0 mi West 4.6 mph - N/A   Overcast
1:53 PM 80.1 °F 50.0 °F 35% 29.88 in 10.0 mi West 3.5 mph - N/A   Scattered Clouds
2:53 PM 64.9 °F 55.9 °F 73% 30.04 in 10.0 mi WSW 3.5 mph - N/A   Overcast
3:45 PM 60.1 °F 55.0 °F 83% 29.94 in 0.8 mi Variable 4.6 mph - 0.59 in Rain , Thunderstorm Thunderstorms and Rain
3:49 PM 60.8 °F 55.4 °F 82% 29.95 in 1.5 mi Calm Calm - 0.60 in Rain , Thunderstorm Thunderstorms and Rain
3:53 PM 61.0 °F 55.0 °F 81% 29.94 in 3.0 mi Variable 3.5 mph - 0.61 in Rain , Thunderstorm Thunderstorms and Rain
4:29 PM 62.1 °F 55.9 °F 80% 29.94 in 7.0 mi SE 4.6 mph - 0.06 in Rain Light Rain
4:53 PM 61.0 °F 57.0 °F 87% 29.93 in 10.0 mi South 4.6 mph - 0.06 in   Mostly Cloudy
5:53 PM 68.0 °F 54.0 °F 61% 30.03 in 10.0 mi Calm Calm - N/A   Clear
6:53 PM 62.1 °F 57.0 °F 84% 29.92 in 10.0 mi Calm Calm - N/A   Overcast
7:53 PM 61.0 °F 55.9 °F 83% 29.93 in 10.0 mi Calm Calm - N/A   Mostly Cloudy
8:53 PM 60.1 °F 54.0 °F 80% 30.06 in 8.0 mi Calm Calm - N/A   Clear
9:53 PM 57.9 °F 54.0 °F 87% 30.06 in 5.0 mi Calm Calm - N/A   Scattered Clouds
10:53 PM 57.9 °F 54.0 °F 87% 30.07 in 5.0 mi Calm Calm - N/A   Clear
11:35 PM 60.1 °F 55.9 °F 86% 29.98 in 1.8 mi Calm Calm - N/A   Overcast
11:40 PM 60.1 °F 55.9 °F 86% 29.98 in 3.0 mi Calm Calm - N/A   Overcast
11:53 PM 57.9 °F 52.0 °F 81% 30.08 in 8.0 mi South 3.5 mph - N/A   Clear